Other Public Products
Issued by NWS Grand Forks, ND

Home | Current Version | Previous Version | Text Only | Print | Product List | Glossary On
Versions: 1 2 3 4 5 6 7 8 9 10 11 12 13 14 15 16 17 18 19 20 21 22 23 24 25 26 27 28 29 30 31 32 33 34 35 36 37 38 39 40 41 42 43 44 45 46 47 48 49 50
000
FPUS83 KFGF 220831
OPUFGF
PRAIRIE TO PINES WEATHER ROUNDUP
NATIONAL WEATHER SERVICE EASTERN NORTH DAKOTA/GRAND FORKS ND
300 AM CDT FRI MAY 22 2015

 **SATELLITE DATA USED TO AUGMENT SKY COVER AT AUTOMATED STATIONS**
 *****  WEATHER ACROSS EASTERN NORTH DAKOTA  *****

CITY           SKY/WX    TMP DP  RH WIND       PRES   REMARKS
GRAND FORKS    CLEAR     41  37  86 CALM      30.14R
GRAND FORKS AF CLEAR     40  38  93 W3        30.14S
GRAND CITY NWS   N/A     41 N/A N/A NW1         N/A
BUXTON           N/A     47  42  83 SW3         N/A
DEVILS LAKE    CLEAR     48  39  71 S5        30.14S
FARGO          CLEAR     45  40  82 CALM      30.15R
WAHPETON ARPT  SUNNY     41  34  75 W5        30.16R
$$

 *****  WEATHER ACROSS CENTRAL AND WESTERN NORTH DAKOTA  *****

CITY           SKY/WX    TMP DP  RH WIND       PRES   REMARKS
JAMESTOWN      CLEAR     49  42  77 CALM      30.15S
BISMARCK       CLEAR     47  42  83 NE6       30.14S
MINOT          CLEAR     53  35  50 S9        30.13S
MINOT AFB      CLEAR     47  41  81 SW8       30.12S
GARRISON         N/A     49  39  68 SE6       30.14S
WILLISTON      CLEAR     49  36  61 CALM      30.11F
DICKINSON      CLEAR     44  32  62 S8        30.11F
HETTINGER      CLEAR     36  31  82 CALM      30.15R
$$

 *****  OTHER OBSERVATIONS NORTHEAST NORTH DAKOTA  *****

CITY           SKY/WX    TMP DP  RH WIND       PRES   REMARKS
WALHALLA       FAIR      48  34  57 SW5       30.13S
LANGDON        FAIR      41  36  81 S8        30.15R
CAVALIER       FAIR      45  43  93 SW3       30.13S
GRAFTON        FAIR      45  43  93 SW5       30.15R
CANDO          FAIR      43  39  87 CALM      30.15S
FORT TOTTEN      N/A     51  32  48 SE3       29.95
ROLLA          FAIR      46  32  57 SW7       30.15S
RUGBY          NOT AVBL
 ***** THE ABOVE OBSERVATIONS ARE NON NWS ARE NOT QUALITY
        CONTROLLED AND MAY MIS-REPORT RAIN FOR SNOW...
$$

 *****  OTHER OBSERVATIONS SOUTHEAST NORTH DAKOTA *****

CITY           SKY/WX    TMP DP  RH WIND       PRES   REMARKS
COOPERSTOWN    NOT AVBL
VALLEY CITY    FAIR      45  37  76 CALM      30.16S
OAKES            N/A     45  41  87 CALM      30.16S
GWINNER        NOT AVBL
SHEYENNE NWR     N/A     40  37  88 CALM      29.95S
BUFFALO        NOT AVBL
WYNDMERE         N/A     43  39  87 SW3         N/A
 ***** THE ABOVE OBSERVATIONS ARE NON NWS ARE NOT QUALITY
       CONTROLLED AND MAY MIS-REPORT RAIN FOR SNOW...
$$

  *****  WEATHER ACROSS NORTHERN MINNESOTA  *****

CITY           SKY/WX    TMP DP  RH WIND       PRES   REMARKS
FLAG ISLAND    CLEAR     48  37  66 NW3       30.12R
WARROAD        CLEAR     39  36  87 CALM      30.14R
ROSEAU         CLEAR     41  36  81 CALM      30.14S
HALLOCK        CLEAR     43  37  81 CALM      30.14R
THF RVR FALLS  CLEAR     41  36  81 CALM      30.15R
HALSTAD          N/A     44  34  68 CALM        N/A
FOSSTON        CLEAR     36  30  80 CALM      30.15S
BAUDETTE       CLEAR     38  36  92 CALM      30.12S
WASKISH        CLEAR     37  37 100 CALM      30.13S
CROOKSTON      CLEAR     43  34  70 W5        30.16R
$$
  *****  WEATHER ACROSS CENTRAL AND WEST MINNESOTA  *****

CITY           SKY/WX    TMP DP  RH WIND       PRES   REMARKS
BEMIDJI        CLEAR     36  33  87 CALM      30.14S
PARK RAPIDS    CLEAR     44  37  76 CALM      30.14S
WADENA         CLEAR     41  36  81 CALM      30.15S
DETROIT LAKES  CLEAR     46  43  87 CALM      30.16S
MOORHEAD       CLEAR     48  37  66 CALM      30.16S
FERGUS FALLS   CLEAR     50  37  62 NE3       30.16S
ELBOW LAKE     FAIR      50  45  83 CALM      30.15S
MORRIS MN      CLEAR     46  37  71 NW5       30.15R
STAPLES        CLEAR     41  39  93 CALM      30.16R
WHEATON        CLEAR     46  39  76 CALM      30.18S
$$
  *****  WEATHER ELSEWHERE ACROSS MINNESOTA  *****

CITY           SKY/WX    TMP DP  RH WIND       PRES   REMARKS
DULUTH         CLEAR     41  32  70 CALM      30.12R
INTRNTL FALLS  CLEAR     32  30  92 CALM      30.13R
ELY            CLEAR     30  28  93 CALM      30.13R
CLOQUET        CLEAR     36  30  80 NW3       30.13S
BRAINERD       CLEAR     38  35  89 CALM      30.15R
HIBBING        CLEAR     32  28  85 CALM      30.13R
ALEXANDRIA     CLEAR     44  38  79 CALM      30.16S
SAINT CLOUD    CLEAR     42  38  85 CALM      30.14R
MINNEAPOLIS    CLEAR     54  34  46 NW3       30.13R
$$

  *****  WEATHER ACROSS SOUTH DAKOTA  *****

CITY           SKY/WX    TMP DP  RH WIND       PRES   REMARKS
SIOUX FALLS    CLEAR     47  40  76 CALM      30.17R
BROOKINGS      CLEAR     46  37  71 CALM      30.19S
WATERTOWN      CLEAR     43  36  76 SW10      30.17R
HURON          CLEAR     45  41  86 CALM      30.16R
SISSETON         N/A     43  38  82 CALM      30.15S
ABERDEEN       CLEAR     48  38  68 E8        30.15S
MITCHELL       CLEAR     51  40  65 SW6       30.17S
PIERRE         CLEAR     45  36  70 CALM      30.14S
MOBRIDGE       CLEAR     50  40  68 NE6       30.12S
RAPID CITY     CLOUDY    48  44  86 E5        30.10F
$$

  *****  SOME WEATHER IN NEARBY STATES *****

CITY           SKY/WX    TMP DP  RH WIND       PRES   REMARKS
GLASGOW MT     CLEAR     48  33  56 E12       30.06F
GREAT FALLS MT CLEAR     54  42  64 VRB3      29.95S
CHEYENNE WY    LGT RAIN  43  42  97 S16G25    30.06F FOG
SCOTTSBLUFF NE CLOUDY    51  45  79 SE12      30.10S
OMAHA NE       PTCLDY    59  40  49 W5        30.20S
DES MOINES IA  CLEAR     54  42  64 W9        30.16R
DAVENPORT IA   CLEAR     48  40  73 W7        30.09R
CHICAGO IL     CLEAR     55  41  59 NW3       30.05R
EAU CLAIRE WI  CLEAR     41  38  89 NE5       30.10R
LA CROSSE WI   CLEAR     49  42  77 E3        30.09R
$$

  *****  SOME NATIONAL WEATHER *****

CITY           SKY/WX    TMP DP  RH WIND       PRES   REMARKS
LA GUARDIA NY  CLOUDY    56  45  66 NW8       29.85S
RALEIGH NC     PTCLDY    56  52  86 CALM      30.03R
ATLANTA GA     CLOUDY    54  46  74 NW12      30.08S
NEW ORLEANS LA CLOUDY    72  67  84 N13       30.07S
OKLAHOMA CITY  CLOUDY    55  47  74 E8        30.16S
ALBUQUERQUE NM PTCLDY    50  42  74 E12       30.10F
SALT LAKE CITY CLOUDY    55  48  77 CALM      29.89F
LOS ANGELES CA MOCLDY    58  53  84 W16       29.99S
BOISE ID       CLOUDY    55  48  77 S3        29.86S
SEATTLE WA     MOCLDY    55  51  86 S13       29.91R
$$

*** WEATHER ACROSS MANITOBA...SASKATCHEWAN AND ONTARIO ***
                ***ONTARIO***

CITY           SKY/WX    TMP DP  RH WIND       PRES   REMARKS
GERALDTON      CLEAR     21  18  86 CALM      30.14R
THUNDER BAY    CLEAR     30  27  86 NW2       30.15R
SIOUX LOOKOUT  CLEAR     28  25  86 SE2       30.13R
TORONTO        CLEAR     46  32  57 NW13      29.90R
BIG TROUT LK   CLEAR     25  23  93 S5        30.14S WCI  19
PICKLE LAKE    NOT AVBL
DRYDEN         CLEAR     39  32  75 CALM      30.12R
KENORA         CLEAR     48  27  43 SE5       30.13R
$$
                *** MANITOBA***

CITY           SKY/WX    TMP DP  RH WIND       PRES   REMARKS
BRANDON        PTCLDY    43  36  75 W6        30.11S
DAUPHIN        CLEAR     50  39  66 W7        30.06R
ISLAND LAKE    CLEAR     37  28  70 SE6       30.11S
PILOT MOUND      N/A     41  34  75 S8          N/A
THE PAS        PTCLDY    50  43  76 S8        29.95F
THOMPSON       PTCLDY    43  30  61 VRB2      29.99F
WINNIPEG       PTCLDY    46  37  71 S7        30.12S
LYNN LAKE      PTCLDY    45  34  65 SW2       29.92R
CHURCHILL      PTCLDY    37  28  70 S14       29.96F
GILLAM         CLEAR     37  25  60 S8        30.05F
$$
                ***SASKATCHEWAN***

CITY           SKY/WX    TMP DP  RH WIND       PRES   REMARKS
ESTEVAN        PTCLDY    46  39  76 SE8       30.12F
KINDERSLEY     CLEAR     48  27  43 S10       30.04S
LLOYDMINSTER   CLEAR     50  30  46 S10       30.01R
PRINCE ALBERT  PTCLDY    50  34  53 SW2       30.04R
REGINA         CLEAR     54  32  43 SE6       30.11F



USA.gov is the U.S. government's official web portal to all federal, state and local government web resources and services.